Avoca, PA

5:24 AM EDT on September 16, 2019 (GMT -0400)
Wilkes-Barre-Scranton International

Weather History for KAVP - August, 2019

Change the Weather History Date:

Saturday, August 17, 2019

  Actual Average Record
Temperature  
Mean Temperature 77 °F 70 °F  
Max Temperature 87 °F 80 °F 95 °F (1913)
Min Temperature 67 °F 60 °F 43 °F (1979)
Degree Days  
Heating Degree Days 0 0  
Month to date heating degree days 0 0  
Since 1 June heating degree days 32 62  
Since 1 July heating degree days 0 8  
Cooling Degree Days 12 5  
Month to date cooling degree days 148 100  
Year to date cooling degree days 662 460  
Since 1 June cooling degree days 612 423  
Growing Degree Days 26 (Base 50)    
Moisture  
Dew Point 69 °F    
Average Humidity 76    
Maximum Humidity 100    
Minimum Humidity 51    
Precipitation  
Precipitation 0.98 in 0.10 in 1.55 in (1994)
Month to date precipitation 4.54 1.93  
Year to date precipitation 36.62 23.55  
Sea Level Pressure  
Sea Level Pressure 30.01 in    
Wind  
Wind Speed 4 mph (SW)    
Max Wind Speed 14 mph    
Max Gust Speed 19 mph    
Visibility 6 miles    
Events Fog , Rain , Thunderstorm    
T = Trace of Precipitation, MM = Missing Value Source: NWS Daily Summary

Daily Weather History Graph

Daily Weather History Graph

Search for Another Location

Airport or City:

Astronomy

Aug. 17, 2019 Rise Set
Actual Time 6:13 AM EDT 7:59 PM EDT
Civil Twilight 5:44 AM EDT 8:28 PM EDT
Nautical Twilight 5:08 AM EDT 9:04 PM EDT
Astronomical Twilight 4:29 AM EDT 9:43 PM EDT
Moon 9:25 PM EDT (8/17) 8:00 AM EDT (8/17)
Length of Visible Light 14h 44m
Length of Day
13h 45m
Waning Gibbous, 96% of the Moon is Illuminated
Aug 17
Waning Gibbous
Aug 23
Last Quarter
Aug 30
New
Sep 5
First Quarter
Sep 14
Full

Hourly Weather History & Observations

Time (EDT) Temp. Heat Index Dew Point Humidity Pressure Visibility Wind Dir Wind Speed Gust Speed Precip Events Conditions
12:54 AM 73.0 °F - 69.1 °F 87% 30.01 in 9.0 mi Calm Calm - N/A   Scattered Clouds
1:17 AM 73.0 °F - 69.1 °F 87% 30.03 in 8.0 mi Calm Calm - N/A   Mostly Cloudy
1:33 AM 73.0 °F - 69.1 °F 87% 30.03 in 8.0 mi Calm Calm - N/A   Mostly Cloudy
1:54 AM 73.0 °F - 69.1 °F 87% 30.01 in 7.0 mi Variable 3.5 mph - 0.00 in Rain Light Rain
2:00 AM 72.0 °F - 70.0 °F 93% 30.03 in 1.5 mi Variable 5.8 mph - 0.00 in Rain Light Rain
2:09 AM 71.1 °F - 69.1 °F 93% 30.03 in 2.0 mi Variable 3.5 mph - 0.17 in Rain Light Rain
2:15 AM 72.0 °F - 70.0 °F 93% 30.03 in 6.0 mi Variable 3.5 mph - 0.17 in Rain Light Rain
2:22 AM 72.0 °F - 70.0 °F 93% 30.03 in 6.0 mi SSE 3.5 mph - 0.17 in   Overcast
2:45 AM 72.0 °F - 70.0 °F 93% 30.02 in 4.0 mi Calm Calm - 0.17 in   Mostly Cloudy
2:54 AM 72.0 °F - 70.0 °F 93% 30.00 in 4.0 mi Calm Calm - 0.17 in   Scattered Clouds
3:34 AM 71.1 °F - 70.0 °F 96% 30.03 in 2.5 mi Calm Calm - N/A   Mostly Cloudy
3:43 AM 72.0 °F - 70.0 °F 93% 30.03 in 4.0 mi Calm Calm - N/A   Mostly Cloudy
3:54 AM 71.1 °F - 70.0 °F 96% 30.00 in 3.0 mi Calm Calm - N/A   Mostly Cloudy
4:05 AM 71.1 °F - 69.1 °F 93% 30.03 in 2.5 mi Calm Calm - N/A   Mostly Cloudy
4:16 AM 71.1 °F - 70.0 °F 96% 30.03 in 4.0 mi Calm Calm - N/A   Mostly Cloudy
4:54 AM 71.1 °F - 70.0 °F 96% 29.99 in 4.0 mi Calm Calm - 0.00 in Rain Light Rain
5:11 AM 71.1 °F - 70.0 °F 96% 30.02 in 2.0 mi Calm Calm - 0.01 in Rain Rain
5:31 AM 72.0 °F - 70.0 °F 93% 30.02 in 2.5 mi Variable 3.5 mph - 0.06 in Rain Light Rain
5:38 AM 72.0 °F - 70.0 °F 93% 30.02 in 3.0 mi SSW 4.6 mph - 0.06 in Rain Light Rain
5:54 AM 70.0 °F - 68.0 °F 93% 29.99 in 4.0 mi South 3.5 mph - 0.10 in Rain Rain
6:54 AM 70.0 °F - 68.0 °F 93% 30.01 in 6.0 mi Calm Calm - 0.06 in Rain Light Rain
7:33 AM 70.0 °F - 66.9 °F 90% 30.03 in 8.0 mi East 5.8 mph - 0.00 in   Mostly Cloudy
7:43 AM 69.1 °F - 66.9 °F 93% 30.03 in 8.0 mi ESE 4.6 mph - 0.00 in   Scattered Clouds
7:54 AM 70.0 °F - 66.9 °F 90% 30.01 in 8.0 mi East 3.5 mph - 0.00 in   Mostly Cloudy
8:54 AM 71.1 °F - 69.1 °F 93% 30.02 in 2.0 mi West 4.6 mph - 0.00 in Rain Heavy Rain
9:02 AM 71.1 °F - 68.0 °F 90% 30.04 in 1.5 mi South 3.5 mph - 0.04 in Rain Heavy Rain
9:18 AM 70.0 °F - 69.1 °F 97% 30.03 in 1.8 mi Calm Calm - 0.12 in Rain Rain
9:23 AM 70.0 °F - 69.1 °F 97% 30.03 in 3.0 mi Calm Calm - 0.12 in Rain Light Rain
9:51 AM 71.6 °F - 69.8 °F 94% 30.03 in 0.5 mi NW 9.2 mph - 0.12 in   Overcast
9:52 AM 71.6 °F - 69.8 °F 94% 30.03 in 0.0 mi NW 8.1 mph - 0.12 in   Overcast
9:54 AM 71.1 °F - 70.0 °F 96% 30.01 in 0.5 mi NW 5.8 mph - 0.12 in Fog Fog
10:06 AM 72.0 °F - 70.0 °F 93% 30.03 in 3.0 mi NNE 3.5 mph - N/A   Mostly Cloudy
10:54 AM 77.0 °F - 72.0 °F 84% 30.03 in 8.0 mi WNW 4.6 mph - N/A   Partly Cloudy
11:10 AM 77.0 °F - 71.1 °F 82% 30.05 in 8.0 mi Calm Calm - N/A   Partly Cloudy
11:54 AM 81.0 °F 84.4 °F 70.0 °F 69% 30.01 in 10.0 mi WNW 3.5 mph - N/A   Clear
12:54 PM 82.9 °F 86.5 °F 69.1 °F 63% 29.99 in 10.0 mi SSW 6.9 mph - N/A   Scattered Clouds
1:54 PM 86.0 °F 88.8 °F 66.9 °F 53% 29.98 in 10.0 mi SW 8.1 mph - N/A   Partly Cloudy
2:54 PM 84.9 °F 88.2 °F 68.0 °F 57% 29.97 in 10.0 mi SW 8.1 mph - N/A   Mostly Cloudy
3:54 PM 84.9 °F 89.4 °F 70.0 °F 61% 29.95 in 10.0 mi SSW 8.1 mph - N/A   Partly Cloudy
4:39 PM 81.0 °F 85.8 °F 73.0 °F 77% 29.97 in 9.0 mi Variable 4.6 mph - 0.02 in Rain , Thunderstorm Light Thunderstorms and Rain
4:54 PM 82.9 °F 87.5 °F 71.1 °F 67% 29.94 in 10.0 mi Variable 5.8 mph - 0.02 in Thunderstorm Thunderstorm
5:05 PM 84.0 °F 89.0 °F 71.1 °F 65% 29.97 in 10.0 mi Variable 6.9 mph - N/A Thunderstorm Scattered Clouds
5:18 PM 84.0 °F 88.4 °F 70.0 °F 63% 29.96 in 10.0 mi SW 8.1 mph - N/A   Scattered Clouds
5:54 PM 78.1 °F - 70.0 °F 76% 29.94 in 10.0 mi NE 8.1 mph - N/A   Scattered Clouds
6:54 PM 77.0 °F - 70.0 °F 79% 29.94 in 10.0 mi NE 5.8 mph - N/A   Clear
7:54 PM 75.0 °F - 70.0 °F 84% 29.97 in 10.0 mi Calm Calm - N/A   Clear
8:06 PM 75.0 °F - 70.0 °F 84% 30.00 in 10.0 mi NNW 10.4 mph - N/A Thunderstorm Partly Cloudy
8:31 PM 71.6 °F - 66.2 °F 83% 30.05 in 1.5 mi Variable 5.8 mph 19.6 mph N/A Rain , Thunderstorm Heavy Rain
8:34 PM 70.0 °F - 66.0 °F 87% 30.03 in 0.8 mi ENE 8.1 mph 19.6 mph 0.10 in Rain , Thunderstorm Heavy Thunderstorms and Rain
8:41 PM 69.1 °F - 66.0 °F 90% 30.02 in 1.0 mi Variable 4.6 mph - 0.47 in Rain , Thunderstorm Heavy Thunderstorms and Rain
8:46 PM 69.1 °F - 66.0 °F 90% 30.02 in 3.0 mi Variable 3.5 mph - 0.50 in Rain , Thunderstorm Thunderstorms and Rain
8:54 PM 68.0 °F - 66.0 °F 93% 30.01 in 7.0 mi South 4.6 mph - 0.51 in Rain , Thunderstorm Light Rain
9:13 PM 69.1 °F - 66.9 °F 93% 30.03 in 10.0 mi Calm Calm - 0.00 in Rain Light Rain
9:54 PM 70.0 °F - 66.9 °F 90% 29.99 in 10.0 mi Variable 3.5 mph - 0.00 in   Mostly Cloudy
10:54 PM 68.0 °F - 66.9 °F 96% 29.99 in 9.0 mi Calm Calm - 0.00 in   Clear
11:36 PM 66.9 °F - 66.0 °F 97% 30.00 in 3.0 mi Calm Calm - N/A   Partly Cloudy
11:54 PM 66.9 °F - 66.0 °F 97% 29.98 in 8.0 mi Calm Calm - N/A   Partly Cloudy